Location: Foligno
(42.9600°N, 12.7050°E)
Time: 16:51:53
(UTC+02:00)

ISS - Visible Passes

Search period start: 17 July 2025 00:00
Search period end: 27 July 2025 00:00
Orbit: 415 x 418 km, 51.6° (Epoch: 17 July)

Date Brightness Start Highest point End Pass type
(mag) Time Alt. Az. Time Alt. Az. Time Alt. Az.
17 Jul -2.0 00:23:16 10° NW 00:25:24 33° NNW 00:25:24 33° NNW visible
17 Jul -1.1 21:58:17 10° NW 22:00:43 18° N 22:03:08 10° NE visible
17 Jul -2.4 23:35:03 10° NW 23:38:09 35° NNE 23:38:30 34° NE visible
18 Jul -1.9 22:46:48 10° NW 22:49:42 27° NNE 22:51:38 16° ENE visible
19 Jul -1.4 00:23:21 10° WNW 00:24:31 20° WNW 00:24:31 20° WNW visible
19 Jul -1.6 21:58:30 10° NW 22:01:13 22° NNE 22:03:54 10° ENE visible
19 Jul -3.0 23:35:01 10° NW 23:37:41 52° NW 23:37:41 52° NW visible
20 Jul -3.0 22:46:44 10° NW 22:49:59 47° NNE 22:50:54 36° ENE visible
21 Jul -2.4 21:58:27 10° NW 22:01:33 33° NNE 22:04:08 13° E visible
21 Jul -2.0 23:35:10 10° WNW 23:37:01 27° W 23:37:01 27° W visible
22 Jul -1.9 21:10:09 10° NW 21:13:02 26° NNE 21:15:55 10° ENE visible
22 Jul -3.9 22:46:42 10° WNW 22:50:03 71° SW 22:50:17 67° S visible
23 Jul -3.7 21:58:19 10° NW 22:01:40 70° NNE 22:03:35 23° ESE visible
23 Jul -1.0 23:35:59 10° W 23:36:29 12° W 23:36:29 12° W visible
24 Jul -3.0 21:09:59 10° NW 21:13:14 45° NNE 21:16:28 10° ESE visible
24 Jul -2.3 22:47:00 10° WNW 22:49:49 26° SW 22:49:49 26° SW visible
25 Jul -3.1 21:58:21 10° WNW 22:01:33 44° SW 22:03:13 23° SSE visible
26 Jul -3.7 21:09:51 10° WNW 21:13:12 76° SW 21:16:32 10° SE visible
